Meteopurmerend
purmerend
Purmerend - Baaienwijk



My webcam  My webcam


Onweer radar Meer informatie blitzortung!


Regen radar Meer informatie rain snow radar


Bezoek onze andere website:

CandyAppleRed WebdesignWebdesign Purmerend Candy Apple Red

MeteopurmerendBlog

Template documentation
and downloads



We konden geen weer-waarchuwingen ophalen. Ga rechtstreeks naar de Meteoalarm site : www.meteoalarm.eu en controleer daar .

15 daagse weersverwachting Hilversum (NL)

  • Overzicht
  • Per uur
  • 15 dagen
  • Extra
  • Vergelijk
  • Kaarten
  • Dagkaart
  • Meer »
  • Info
  • Statistieken
  • Directe link
    Temp 6h Neerslag Wind  
 05:58     21:34    Daglengte: 15:36 Vandaag
14:00
19°
 
8
20:00
18°
 
5
 06:00     21:33    Daglengte: 15:33 Morgen
02:00
15°
 
4
08:00
14°
 
3
14:00
20°
 
4
20:00
18°
 
3
 06:01     21:31    Daglengte: 15:30 Zaterdag 31 Jul
02:00
15°
 
6
08:00
15°
1.6 mm
5
14:00
18°
10.9 mm
6
20:00
17°
9.0 mm
4
 06:03     21:29    Daglengte: 15:26 Zondag 01 Aug
02:00
15°
 
2
08:00
16°
 
2
Locatie info
Region: Noord-Holland
Latitude: 52.2286°N
Longitude: 5.1695°E
7 masl
Postcode: 1217 JE
Temp/Neerslag /Baro Onweer/Dauwpunt
    Temp Baro 1h Neerslag Dauwpunt Wind UV Bewolking  
 05:58     21:34    Daglengte: 15:36 Vandaag
12:00
18°
1009.6 hPa
13%
9.5°
8
Windvlaag: 8.2 m/s
12%
13:00
19°
1009.7 hPa
16%
9.2°
8
Windvlaag: 7.8 m/s
32%
14:00
19°
1009.9 hPa
17%
9.2°
8
Windvlaag: 7.4 m/s
13%
15:00
20°
1009.9 hPa
17%
9.2°
8
Windvlaag: 7 m/s
4%
16:00
20°
1010.0 hPa
17%
9.5°
7
Windvlaag: 6.5 m/s
6%
17:00
19°
1010.0 hPa
15%
9.8°
7
Windvlaag: 6.1 m/s
5%
18:00
19°
1010.3 hPa
14%
9.8°
6
Windvlaag: 6.2 m/s
29%
19:00
19°
1010.2 hPa
12%
9.9°
6
Windvlaag: 5.5 m/s
3%
20:00
18°
1010.2 hPa
12%
9.6°
5
Windvlaag: 5.9 m/s
3%
21:00
17°
1010.1 hPa
13%
10.4°
4
Windvlaag: 5.7 m/s
5%
22:00
16°
1010.3 hPa
12%
10.6°
4
Windvlaag: 6.5 m/s
41%
23:00
16°
1010.3 hPa
12%
10.7°
4
Windvlaag: 7.3 m/s
45%
 06:00     21:33    Daglengte: 15:33 Morgen
00:00
15°
1010.1 hPa
12%
10.4°
4
Windvlaag: 7.5 m/s
51%
01:00
15°
1010.0 hPa
12%
10.6°
4
Windvlaag: 7.3 m/s
51%
02:00
15°
1009.7 hPa
12%
10.7°
4
Windvlaag: 6.9 m/s
27%
03:00
14°
1009.5 hPa
12%
10.9°
3
Windvlaag: 6.8 m/s
4%
04:00
13°
1009.3 hPa
12%
11.0°
3
Windvlaag: 6.5 m/s
12%
05:00
13°
1008.9 hPa
12%
11.2°
3
Windvlaag: 6.1 m/s
32%
06:00
13°
1008.8 hPa
12%
11.1°
3
Windvlaag: 5.7 m/s
21%
07:00
13°
1008.8 hPa
12%
11.4°
3
Windvlaag: 5.6 m/s
70%
08:00
14°
1008.7 hPa
12%
11.6°
3
Windvlaag: 5.6 m/s
81%
09:00
15°
1008.4 hPa
31%
11.9°
3
Windvlaag: 4.8 m/s
86%
10:00
16°
1008.2 hPa
74%
11.5°
2
Windvlaag: 4.4 m/s
86%
11:00
17°
1007.9 hPa
74%
12.5°
3
Windvlaag: 2.8 m/s
85%
12:00
17°
1007.3 hPa
72%
13.4°
3
Windvlaag: 3.9 m/s
74%
13:00
19°
1006.4 hPa
14%
15.9°
4
Windvlaag: 8.4 m/s
63%
14:00
20°
1005.8 hPa
18%
16.8°
4
Windvlaag: 9.5 m/s
76%
15:00
20°
1005.3 hPa
18%
16.3°
4
Windvlaag: 9.9 m/s
83%
16:00
19°
1005.1 hPa
72%
15.2°
4
Windvlaag: 9.6 m/s
40%
17:00
21°
1004.4 hPa
17%
16.7°
4
Windvlaag: 8.1 m/s
13%
18:00
20°
1004.1 hPa
18%
16.1°
5
Windvlaag: 9.5 m/s
21%
19:00
18°
1004.0 hPa
14%
15.2°
4
Windvlaag: 9.2 m/s
10%
20:00
18°
1003.8 hPa
17%
14.9°
3
Windvlaag: 7.2 m/s
67%
21:00
17°
1003.6 hPa
16%
14.4°
4
Windvlaag: 8 m/s
15%
22:00
16°
1003.6 hPa
17%
14.1°
5
Windvlaag: 11.6 m/s
22%
23:00
16°
1003.5 hPa
16%
14.3°
5
Windvlaag: 13.1 m/s
39%
 06:01     21:31    Daglengte: 15:30 Zaterdag 31 Jul
00:00
16°
1003.4 hPa
18%
13.8°
6
Windvlaag: 12.5 m/s
30%
01:00
16°
1003.4 hPa
29%
13.8°
6
Windvlaag: 9.9 m/s
40%
02:00
15°
1003.6 hPa
73%
13.6°
6
Windvlaag: 3.5 m/s
71%
03:00
15°
1004.1 hPa 0.7 mm
75%
13.5°
5
Windvlaag: 3.2 m/s
54%
04:00
15°
1004.6 hPa
29%
13.0°
5
Windvlaag: 3 m/s
61%
05:00
15°
1003.5 hPa 0.9 mm
31%
13.7°
5
Windvlaag: 3.2 m/s
80%
06:00
15°
1003.8 hPa
34%
13.5°
5
Windvlaag: 5.6 m/s
79%
07:00
15°
1004.1 hPa
34%
13.7°
4
Windvlaag: 6.2 m/s
81%
08:00
15°
1004.5 hPa
28%
13.7°
5
Windvlaag: 7.2 m/s
76%
09:00
16°
1004.9 hPa 1.8 mm
27%
13.5°
6
Windvlaag: 7.3 m/s
75%
10:00
17°
1005.1 hPa 1.9 mm
25%
13.7°
6
Windvlaag: 6.6 m/s
59%
11:00
17°
1005.5 hPa 2.5 mm
29%
14.7°
6
Windvlaag: 5.3 m/s
72%
12:00
17°
1006.0 hPa 1.9 mm
97%
14.6°
6
Windvlaag: 5.2 m/s
61%
13:00
18°
1006.2 hPa 1.5 mm
100%
13.7°
6
Windvlaag: 5 m/s
85%
14:00
18°
1006.5 hPa 1.4 mm
100%
12.6°
6
Windvlaag: 5.2 m/s
87%
15:00
18°
1006.8 hPa 2.4 mm
100%
11.7°
6
Windvlaag: 3.5 m/s
87%
16:00
18°
1007.1 hPa 2.4 mm
100%
11.6°
5
Windvlaag: 3.3 m/s
87%
17:00
18°
1007.1 hPa 2.3 mm
100%
12.3°
5
Windvlaag: 2.8 m/s
87%
18:00
18°
1007.0 hPa
94%
12.8°
5
Windvlaag: 2.9 m/s
55%
19:00
18°
1007.0 hPa 1.9 mm
36%
13.9°
5
Windvlaag: 2 m/s
34%
20:00
17°
1007.2 hPa
40%
13.1°
4
Windvlaag: 3.1 m/s
43%
21:00
17°
1007.3 hPa
41%
13.1°
4
Windvlaag: 3.5 m/s
29%
22:00
16°
1007.6 hPa
37%
13.7°
3
Windvlaag: 4.1 m/s
45%
23:00
15°
1007.6 hPa
27%
13.7°
2
Windvlaag: 3.9 m/s
43%
 06:03     21:29    Daglengte: 15:26 Zondag 01 Aug
00:00
15°
1007.7 hPa
27%
13.6°
2
Windvlaag: 4.1 m/s
41%
01:00
15°
1007.8 hPa
28%
13.4°
2
Windvlaag: 4.9 m/s
61%
02:00
15°
1007.5 hPa
35%
13.3°
2
Windvlaag: 5 m/s
66%
03:00
15°
1007.1 hPa
28%
13.7°
2
Windvlaag: 4.7 m/s
64%
04:00
14°
1007.0 hPa
27%
14.0°
2
Windvlaag: 5.1 m/s
61%
05:00
14°
1006.9 hPa
27%
14.4°
2
Windvlaag: 3.8 m/s
72%
06:00
14°
1007.0 hPa
27%
14.3°
2
Windvlaag: 3.1 m/s
72%
07:00
15°
1007.0 hPa
32%
14.6°
2
Windvlaag: 2.3 m/s
70%
08:00
16°
1007.1 hPa
29%
14.9°
2
Windvlaag: 1.5 m/s
83%
09:00
17°
1006.5 hPa 5.7 mm
100%
14.6°
1
Windvlaag: 2.2 m/s
98%
10:00
18°
1006.3 hPa 5.7 mm
100%
13.8°
1
Windvlaag: 2.8 m/s
100%
11:00
19°
1007.0 hPa 5.7 mm
100%
13.4°
1
Windvlaag: 1.8 m/s
100%
Temp/Neerslag /Baro Onweer/Dauwpunt
    Temp Baro Neerslag Dauwpunt Wind Bewolking  
 05:58     21:34    Daglengte: 15:36 Vandaag
14:00
19°
1009.9 hPa   9.2°
8
13%
17:00
19°
1010.0 hPa   9.8°
7
5%
20:00
18°
1010.2 hPa   9.6°
5
3%
23:00
16°
1010.3 hPa   10.7°
4
45%
 06:00     21:33    Daglengte: 15:33 Morgen
02:00
15°
1009.7 hPa   10.7°
4
27%
05:00
13°
1008.9 hPa   11.2°
3
32%
08:00
14°
1008.7 hPa   11.6°
3
81%
11:00
17°
1007.9 hPa   12.5°
3
85%
14:00
20°
1005.8 hPa   16.8°
4
76%
17:00
21°
1004.4 hPa   16.7°
4
13%
20:00
18°
1003.8 hPa   14.9°
3
67%
23:00
16°
1003.5 hPa   14.3°
5
39%
 06:01     21:31    Daglengte: 15:30 Zaterdag 31 Jul
02:00
15°
1003.6 hPa   13.6°
6
71%
05:00
15°
1003.5 hPa 1.6 mm 13.7°
5
80%
08:00
15°
1004.5 hPa   13.7°
5
76%
11:00
17°
1005.5 hPa 6.1 mm 14.7°
6
72%
14:00
18°
1006.5 hPa 4.8 mm 12.6°
6
87%
17:00
18°
1007.1 hPa 7.1 mm 12.3°
5
87%
20:00
17°
1007.2 hPa 1.9 mm 13.1°
4
43%
23:00
15°
1007.6 hPa   13.7°
2
43%
 06:03     21:29    Daglengte: 15:26 Zondag 01 Aug
02:00
15°
1007.5 hPa   13.3°
2
66%
05:00
14°
1006.9 hPa   14.4°
2
72%
08:00
16°
1007.1 hPa   14.9°
2
83%
11:00
19°
1007.0 hPa 17.0 mm 13.4°
1
100%
14:00
20°
1007.0 hPa 18.3 mm 14.4°
2
95%
17:00
16°
1010.2 hPa 12.1 mm 14.4°
1
1%
20:00
17°
1010.1 hPa 13.8 mm 15.4°
2
1%
23:00
13°
1011.2 hPa 14.6 mm 13.0°
2
0%
 06:04     21:28    Daglengte: 15:24 Maandag 02 Aug
02:00
13°
1011.6 hPa 15.2 mm 12.1°
1
0%
05:00
12°
1011.8 hPa 15.3 mm 11.5°
1
1%
08:00
14°
1012.6 hPa 15.3 mm 12.6°
1
1%
11:00
17°
1013.3 hPa 15.8 mm 12.5°
2
1%
14:00
20°
1013.3 hPa 16.4 mm 12.9°
1
1%
17:00
19°
1013.3 hPa 16.6 mm 13.2°
4
1%
20:00
17°
1013.7 hPa 16.7 mm 11.7°
3
1%
23:00
13°
1014.8 hPa 16.7 mm 9.7°
2
1%
 06:06     21:26    Daglengte: 15:20 Dinsdag 03 Aug
02:00
13°
1015.2 hPa 16.7 mm 9.7°
2
1%
05:00
12°
1015.3 hPa 16.7 mm 10.2°
1
0%
08:00
14°
1016.0 hPa 16.7 mm 11.1°
1
0%
11:00
19°
1016.1 hPa 16.7 mm 10.8°
1
0%
14:00
20°
1015.6 hPa 17.3 mm 11.3°
2
0%
17:00
19°
1015.3 hPa 17.8 mm 12.6°
2
1%
20:00
17°
1015.8 hPa 18.2 mm 12.7°
3
1%
23:00
13°
1016.8 hPa 18.2 mm 10.3°
2
0%
 06:08     21:24    Daglengte: 15:16 Woensdag 04 Aug
02:00
11°
1017.2 hPa 18.2 mm 10.1°
1
0%
05:00
11°
1016.8 hPa 18.2 mm 9.6°
1
1%
08:00
13°
1017.9 hPa 18.2 mm 10.4°
1
1%
11:00
19°
1018.1 hPa 18.2 mm 11.3°
1
1%
14:00
22°
1017.4 hPa 18.2 mm 10.0°
1
1%
17:00
19°
1016.9 hPa 18.2 mm 11.6°
2
1%
20:00
18°
1017.3 hPa 18.2 mm 11.5°
3
1%
23:00
15°
1017.6 hPa 18.2 mm 10.0°
2
1%
 06:09     21:22    Daglengte: 15:13 Donderdag 05 Aug
02:00
12°
1017.7 hPa 18.2 mm 10.8°
2
1%
05:00
11°
1017.0 hPa 18.2 mm 10.0°
1
1%
08:00
14°
1017.1 hPa 18.2 mm 10.7°
0
1%
11:00
21°
1016.9 hPa   10.9°
1
0%
14:00
23°
1015.9 hPa 36.5 mm 8.9°
2
0%
20:00
19°
1014.8 hPa 36.5 mm 12.1°
2
1%
 06:11     21:20    Daglengte: 15:09 Vrijdag 06 Aug
02:00
14°
1014.2 hPa 36.5 mm 11.3°
1
0%
08:00
15°
1013.4 hPa 36.5 mm 11.7°
1
0%
14:00
23°
1012.3 hPa 37.3 mm 13.7°
1
1%
20:00
20°
1011.5 hPa 39.8 mm 15.4°
1
1%
 06:12     21:19    Daglengte: 15:07 Zaterdag 07 Aug
02:00
15°
1011.4 hPa 39.8 mm 11.3°
3
1%
08:00
16°
1009.5 hPa 39.8 mm 11.0°
4
1%
14:00
22°
1007.4 hPa 40.1 mm 14.3°
5
1%
20:00
18°
1005.5 hPa 45.8 mm 16.4°
4
1%
 06:14     21:17    Daglengte: 15:03 Zondag 08 Aug
02:00
13°
1007.3 hPa 51.7 mm 12.0°
4
1%
08:00
15°
1011.2 hPa 0.7 mm 12.2°
4
60%
14:00
21°
1012.0 hPa 0.9 mm 13.1°
5
71%
20:00
19°
1012.3 hPa 0.3 mm 13.5°
3
63%
 06:16     21:15    Daglengte: 14:59 Maandag 09 Aug
02:00
15°
1013.4 hPa 0.4 mm 12.6°
3
56%
08:00
16°
1013.9 hPa 0.4 mm 13.1°
3
66%
14:00
21°
1015.6 hPa   13.7°
4
56%
20:00
19°
1016.1 hPa 0.9 mm 13.8°
3
52%
 06:17     21:13    Daglengte: 14:56 Dinsdag 10 Aug
02:00
15°
1017.3 hPa 0.4 mm 12.5°
3
37%
08:00
16°
1017.4 hPa 0.2 mm 13.1°
3
39%
14:00
22°
1018.1 hPa 0.5 mm 13.6°
4
50%
20:00
20°
1017.7 hPa 0.4 mm 13.6°
3
47%
 06:19     21:11    Daglengte: 14:52 Woensdag 11 Aug
02:00
15°
1018.2 hPa 0.3 mm 12.5°
2
45%
08:00
16°
1017.4 hPa   13.1°
3
46%
14:00
22°
1017.8 hPa 0.8 mm 14.1°
3
52%
20:00
20°
1017.1 hPa 0.6 mm 14.2°
2
44%
 06:20     21:09    Daglengte: 14:49 Donderdag 12 Aug
02:00
16°
1017.3 hPa 0.3 mm 13.0°
1
48%
08:00
16°
1016.9 hPa 0.5 mm 13.5°
2
51%
14:00
22°
1016.7 hPa 1.2 mm 14.2°
2
58%
20:00
20°
1016.5 hPa 1.3 mm 14.2°
1
65%
 06:22     21:07    Daglengte: 14:45 Vrijdag 13 Aug
02:00
16°
1016.7 hPa 0.9 mm 13.2°
2
61%
08:00
16°
1016.7 hPa 0.3 mm 13.2°
2
55%
  CAPE Lifted Index Hail Supercell Tornado SRH 3km CL BTM PRES CL TOP PRES Swiss DWD icon SMHI TS
 05:58     21:34    Daglengte: 15:36 Vandaag
12:00 39 J/kg 8.0 K 0 % 0 % 0 % 0 m²/s² 0 0 14.51 2
13:00 22 J/kg 8.2 K 0 % 0 % 0 % 0 m²/s² 0 0 14.74 2
14:00 12 J/kg 8.2 K 0 % 0 % 0 % 0 m²/s² 0 0 14.35 2
15:00 3 J/kg 8.2 K 0 % 0 % 0 % 0 m²/s² 0 0 14.23 2
16:00 4 J/kg 7.5 K 0 % 0 % 0 % 0 m²/s² 0 0 13.05 1
17:00 4 J/kg 7.2 K 0 % 0 % 0 % 0 m²/s² 0 0 12.33 1
18:00 4 J/kg 7.1 K 0 % 0 % 0 % 0 m²/s² 0 0 11.99 2
19:00 2 J/kg 6.8 K 0 % 0 % 0 % 0 m²/s² 0 0 11.84 1
20:00 0 J/kg 6.5 K 0 % 0 % 0 % 0 m²/s² 0 0 11.69 0
21:00 0 J/kg 6.6 K 0 % 0 % 0 % 0 m²/s² 0 0 11.67 1
22:00 0 J/kg 7.0 K 0 % 0 % 0 % 0 m²/s² 0 0 11.59 3
23:00 0 J/kg 7.9 K 0 % 0 % 0 % 0 m²/s² 0 0 12.04 3
 06:00     21:33    Daglengte: 15:33 Morgen
00:00 0 J/kg 7.1 K 0 % 0 % 0 % 0 m²/s² 0 0 10.58 3
01:00 0 J/kg 6.6 K 0 % 0 % 0 % 0 m²/s² 0 0 9.63 3
02:00 0 J/kg 6.7 K 0 % 0 % 0 % 0 m²/s² 0 0 8.65 2
03:00 0 J/kg 7.2 K 0 % 0 % 0 % 0 m²/s² 0 0 9.15 1
04:00 0 J/kg 6.9 K 0 % 0 % 0 % 0 m²/s² 0 0 8.49 2
05:00 0 J/kg 6.8 K 0 % 0 % 0 % 0 m²/s² 0 0 7.79 3
06:00 0 J/kg 6.7 K 0 % 0 % 0 % 0 m²/s² 0 0 7.12 2
07:00 0 J/kg 6.7 K 0 % 0 % 0 % 0 m²/s² 0 0 6.97 3
08:00 0 J/kg 4.2 K 0 % 0 % 0 % 0 m²/s² 0 0 4.68 3
09:00 0 J/kg 3.6 K 0 % 0 % 0 % 0 m²/s² 0 0 4.17 3
10:00 0 J/kg 3.9 K 0 % 0 % 0 % 0 m²/s² 0 0 4.17 61
11:00 0 J/kg 3.3 K 0 % 0 % 0 % 0 m²/s² 0 0 3.57 3
12:00 0 J/kg 2.1 K 0 % 0 % 0 % 0 m²/s² 0 0 2.52 3
13:00 4 J/kg 1.0 K 0 % 0 % 0 % 0 m²/s² 0 0 1.84 3
14:00 105 J/kg 0.1 K 0 % 0 % 0 % 0 m²/s² 0 0 1.3 3
15:00 105 J/kg 0.7 K 0 % 0 % 0 % 0 m²/s² 0 0 1.69 3
16:00 17 J/kg 1.8 K 0 % 0 % 0 % 0 m²/s² 0 0 2.49 61
17:00 13 J/kg 1.2 K 0 % 0 % 0 % 0 m²/s² 0 0 4.74 2
18:00 168 J/kg -0.3 K 0 % 0 % 0 % 0 m²/s² 0 0 2.04 2
19:00 0 J/kg -0.8 K 0 % 0 % 0 % 0 m²/s² 0 0 0.04 2
20:00 5 J/kg 0.5 K 0 % 0 % 0 % 0 m²/s² 0 0 3.5 3
21:00 0 J/kg 0.5 K 0 % 0 % 0 % 0 m²/s² 0 0 1.64 2
22:00 75 J/kg 0.2 K 0 % 0 % 0 % 0 m²/s² 0 0 1.88 2
23:00 100 J/kg 0.3 K 0 % 0 % 0 % 0 m²/s² 0 0 2.64 3
 06:01     21:31    Daglengte: 15:30 Zaterdag 31 Jul
00:00 39 J/kg 1.6 K 0 % 0 % 0 % 0 m²/s² 0 0 5.35 3
01:00 0 J/kg 0.7 K 0 % 0 % 0 % 0 m²/s² 0 0 2.86 3
02:00 0 J/kg 0.9 K 0 % 0 % 0 % 0 m²/s² 0 0 2.88 3
03:00 24 J/kg 0.5 K 0 % 0 % 0 % 0 m²/s² 0 0 1.88 80
04:00 30 J/kg 0.1 K 0 % 0 % 0 % 0 m²/s² 0 0 1.42 2
05:00 98 J/kg 0.0 K 0 % 0 % 0 % 0 m²/s² 0 0 1.71 3
06:00 93 J/kg 0.1 K 0 % 0 % 0 % 0 m²/s² 0 0 2.32 3
07:00 156 J/kg -0.1 K 0 % 0 % 0 % 0 m²/s² 0 0 0.14 3
08:00 147 J/kg 0.6 K 0 % 0 % 0 % 0 m²/s² 0 0 1.2 2
09:00 108 J/kg 0.5 K 0 % 0 % 0 % 0 m²/s² 0 0 1.04 3
10:00 152 J/kg 0.0 K 0 % 0 % 0 % 0 m²/s² 0 0 0.33 3
11:00 400 J/kg -1.2 K 0 % 0 % 0 % 0 m²/s² 0 0 -0.12 3
12:00 442 J/kg -1.5 K 0 % 0 % 0 % 0 m²/s² 0 0 -0.99 3
13:00 522 J/kg -1.6 K 0 % 0 % 0 % 0 m²/s² 0 0 -0.64 80
14:00 413 J/kg -1.1 K 0 % 0 % 0 % 0 m²/s² 0 0 -0.14 80
15:00 299 J/kg -0.7 K 0 % 0 % 0 % 0 m²/s² 0 0 0.26 61
16:00 281 J/kg -0.5 K 0 % 0 % 0 % 0 m²/s² 0 0 0.1 61
17:00 309 J/kg -0.8 K 0 % 0 % 0 % 0 m²/s² 0 0 -0.59 61
18:00 366 J/kg -1.1 K 0 % 0 % 0 % 0 m²/s² 0 0 -0.68 3
19:00 398 J/kg -1.4 K 0 % 0 % 0 % 0 m²/s² 0 0 -0.89 3
20:00 170 J/kg -0.8 K 0 % 0 % 0 % 0 m²/s² 0 0 -0.47 3
21:00 78 J/kg -0.3 K 0 % 0 % 0 % 0 m²/s² 0 0 0.18 2
22:00 40 J/kg -0.1 K 0 % 0 % 0 % 0 m²/s² 0 0 0.32 2
23:00 32 J/kg 0.2 K 0 % 0 % 0 % 0 m²/s² 0 0 0.89 2
 06:03     21:29    Daglengte: 15:26 Zondag 01 Aug
00:00 27 J/kg 0.4 K 0 % 0 % 0 % 0 m²/s² 0 0 1.15 2
01:00 4 J/kg 0.5 K 0 % 0 % 0 % 0 m²/s² 0 0 0.98 3
02:00 22 J/kg 0.4 K 0 % 0 % 0 % 0 m²/s² 0 0 1.06 3
03:00 65 J/kg -0.2 K 0 % 0 % 0 % 0 m²/s² 0 0 0.49 3
04:00 93 J/kg -0.1 K 0 % 0 % 0 % 0 m²/s² 0 0 0.56 3
05:00 48 J/kg 0.4 K 0 % 0 % 0 % 0 m²/s² 0 0 0.7 3
06:00 12 J/kg 0.1 K 0 % 0 % 0 % 0 m²/s² 0 0 0.34 3
07:00 21 J/kg 0.4 K 0 % 0 % 0 % 0 m²/s² 0 0 1 3
08:00 49 J/kg 0.1 K 0 % 0 % 0 % 0 m²/s² 0 0 0.61 3
09:00 214 J/kg -0.6 K 0 % 0 % 0 % 0 m²/s² 0 0 -0.06
10:00 168 J/kg -0.5 K 0 % 0 % 0 % 0 m²/s² 0 0 0.46
11:00 216 J/kg -0.4 K 0 % 0 % 0 % 0 m²/s² 0 0 -0.1
Temp Baro Wind Neerslag
  EWN Forecast EWN WRFDA DWD ICON FMI HIRLAM MET Norway GFS
 05:58     21:34    Daglengte: 15:36 Vandaag
14:00 19.4° 1009.9 hPa 7.6 m/s 0.0 mm 19.6° 1009.3 hPa 8.2 m/s 0.1 mm 19.7° 1009.9 hPa 6.6 m/s 0.0 mm 19.4° 1010.4 hPa 7.9 m/s 0.0 mm 20.0° 1010.0 hPa 7.6 m/s
17:00 19.4° 1010.0 hPa 6.9 m/s 0.0 mm 19.9° 1009.5 hPa 7.5 m/s 0.1 mm 20.3° 1010.1 hPa 6.1 m/s 0.0 mm 19.2° 1010.4 hPa 7.0 m/s 0.0 mm 19.8° 1010.5 hPa 7.0 m/s
20:00 18.3° 1010.2 hPa 5.4 m/s 0.0 mm 18.9° 1009.5 hPa 5.7 m/s 0.0 mm 18.7° 1010.2 hPa 4.5 m/s 0.0 mm 18.2° 1011.0 hPa 5.6 m/s 0.0 mm 17.8° 1010.3 hPa 5.2 m/s
23:00 15.8° 1010.3 hPa 3.9 m/s 0.0 mm 15.1° 1009.4 hPa 3.7 m/s 0.0 mm 15.6° 1010.0 hPa 3.3 m/s 0.0 mm 16.2° 1011.1 hPa 3.9 m/s 0.0 mm 15.0° 1010.7 hPa 4.6 m/s
 06:00     21:33    Daglengte: 15:33 Morgen
02:00 14.6° 1009.7 hPa 3.7 m/s 0.0 mm 13.0° 1009.0 hPa 3.3 m/s 0.0 mm 14.5° 1009.7 hPa 3.2 m/s 0.0 mm 14.7° 1010.1 hPa 3.8 m/s 0.0 mm 13.3° 1010.0 hPa 3.5 m/s
05:00 13.1° 1008.9 hPa 3.1 m/s 0.0 mm 12.3° 1008.0 hPa 3.6 m/s 0.0 mm 13.2° 1009.3 hPa 2.8 m/s 0.0 mm 13.1° 1009.1 hPa 3.3 m/s 0.0 mm 12.2° 1009.3 hPa 2.9 m/s
08:00 14.1° 1008.7 hPa 3.0 m/s 0.0 mm 14.2° 1007.8 hPa 3.2 m/s 0.1 mm 14.3° 1008.8 hPa 2.9 m/s 0.0 mm 14.1° 1009.1 hPa 3.6 m/s 0.0 mm 14.3° 1008.9 hPa 2.7 m/s
11:00 16.5° 1007.9 hPa 2.7 m/s 0.0 mm 19.3° 1006.6 hPa 3.2 m/s 0.1 mm 16.7° 1008.2 hPa 2.7 m/s 0.4 mm 16.2° 1008.4 hPa 3.2 m/s 0.0 mm 17.6° 1008.1 hPa 3.0 m/s
14:00 20.3° 1005.8 hPa 4.3 m/s 0.0 mm 24.5° 1004.1 hPa 5.7 m/s 0.1 mm 20.4° 1006.1 hPa 4.9 m/s 0.0 mm 15.9° 1007.3 hPa 1.2 m/s 0.0 mm 23.4° 1006.2 hPa 5.4 m/s
17:00 20.5° 1004.4 hPa 4.0 m/s 0.0 mm 23.4° 1002.8 hPa 4.8 m/s 0.1 mm 20.8° 1004.6 hPa 5.1 m/s 0.1 mm 16.7° 1006.3 hPa 1.5 m/s 0.0 mm 21.3° 1005.2 hPa 5.3 m/s
20:00 18.0° 1003.8 hPa 3.4 m/s 0.0 mm 17.1° 1003.2 hPa 1.7 m/s 2.0 mm 19.4° 1003.9 hPa 6.0 m/s 0.0 mm 16.5° 1006.2 hPa 1.8 m/s 0.0 mm 18.1° 1004.7 hPa 2.4 m/s
23:00 16.0° 1003.5 hPa 5.5 m/s 0.0 mm 15.9° 1002.5 hPa 3.8 m/s 6.6 mm 16.4° 1003.4 hPa 5.9 m/s 0.0 mm 15.9° 1007.7 hPa 1.8 m/s 0.0 mm 15.4° 1003.9 hPa 5.3 m/s
 06:01     21:31    Daglengte: 15:30 Zaterdag 31 Jul
02:00 15.5° 1003.6 hPa 5.8 m/s 0.0 mm 14.6° 1001.1 hPa 5.8 m/s 7.5 mm 15.8° 1002.7 hPa 6.2 m/s 0.1 mm 15.5° 1008.0 hPa 1.9 m/s 0.0 mm 15.2° 1002.9 hPa 7.1 m/s
05:00 14.7° 1003.5 hPa 5.2 m/s 1.6 mm 14.5° 1000.0 hPa 5.8 m/s 7.6 mm 15.6° 1003.7 hPa 5.1 m/s 0.3 mm 14.7° 1002.2 hPa 6.3 m/s
08:00 15.3° 1004.5 hPa 4.7 m/s 0.0 mm 15.4° 1000.9 hPa 7.9 m/s 10.0 mm 16.0° 1004.7 hPa 4.2 m/s 0.0 mm 14.3° 1003.2 hPa 6.7 m/s
11:00 16.9° 1005.5 hPa 6.0 m/s 6.1 mm 16.7° 1002.9 hPa 6.8 m/s 14.7 mm 18.2° 1005.4 hPa 6.1 m/s 0.0 mm 16.4° 1004.6 hPa 6.9 m/s
14:00 17.8° 1006.5 hPa 5.8 m/s 4.8 mm 19.3° 1004.8 hPa 7.8 m/s 16.1 mm 17.7° 1006.5 hPa 5.0 m/s 0.8 mm 18.0° 1006.2 hPa 6.7 m/s
17:00 18.2° 1007.1 hPa 5.4 m/s 7.1 mm 19.5° 1005.7 hPa 7.1 m/s 16.3 mm 16.8° 1007.1 hPa 3.8 m/s 2.4 mm 16.7° 1007.7 hPa 5.7 m/s
20:00 17.5° 1007.2 hPa 4.4 m/s 1.9 mm 18.2° 1005.8 hPa 5.4 m/s 16.4 mm 17.4° 1007.2 hPa 3.7 m/s 0.0 mm 16.3° 1008.4 hPa 3.6 m/s
23:00 15.0° 1007.6 hPa 2.4 m/s 0.0 mm 14.8° 1007.1 hPa 2.4 m/s 16.5 mm 14.9° 1007.5 hPa 2.0 m/s 0.0 mm 12.6° 1009.5 hPa 2.1 m/s
 06:03     21:29    Daglengte: 15:26 Zondag 01 Aug
02:00 14.8° 1007.5 hPa 2.1 m/s 0.0 mm 15.1° 1006.4 hPa 1.8 m/s 16.5 mm 14.8° 1007.7 hPa 1.7 m/s 0.0 mm 12.1° 1010.0 hPa 1.7 m/s
05:00 14.4° 1006.9 hPa 1.6 m/s 0.0 mm 13.3° 1006.1 hPa 2.5 m/s 16.7 mm 14.6° 1007.1 hPa 1.3 m/s 0.0 mm 12.2° 1009.3 hPa 1.5 m/s
08:00 15.7° 1007.1 hPa 1.9 m/s 0.0 mm 15.4° 1006.0 hPa 0.5 m/s 16.8 mm 15.8° 1007.4 hPa 2.2 m/s 0.0 mm 14.2° 1009.6 hPa 1.3 m/s
11:00 18.7° 1007.0 hPa 1.0 m/s 17.0 mm 18.7° 1007.0 hPa 1.0 m/s 17.0 mm 16.9° 1010.0 hPa 1.3 m/s
14:00 20.0° 1007.0 hPa 2.1 m/s 18.3 mm 20.0° 1007.0 hPa 2.1 m/s 18.3 mm 16.1° 1010.2 hPa 2.6 m/s
17:00 16.4° 1010.2 hPa 0.8 m/s 12.1 mm 16.4° 1010.2 hPa 0.8 m/s 12.1 mm
20:00 16.9° 1010.1 hPa 1.6 m/s 13.8 mm 16.9° 1010.1 hPa 1.6 m/s 13.8 mm
23:00 13.5° 1011.2 hPa 1.7 m/s 14.6 mm 13.5° 1011.2 hPa 1.7 m/s 14.6 mm
 06:04     21:28    Daglengte: 15:24 Maandag 02 Aug
02:00 12.6° 1011.6 hPa 1.2 m/s 15.2 mm 12.6° 1011.6 hPa 1.2 m/s 15.2 mm
05:00 12.1° 1011.8 hPa 1.1 m/s 15.3 mm 12.1° 1011.8 hPa 1.1 m/s 15.3 mm
08:00 13.9° 1012.6 hPa 1.1 m/s 15.3 mm 13.9° 1012.6 hPa 1.1 m/s 15.3 mm
11:00 16.7° 1013.3 hPa 1.7 m/s 15.8 mm 16.7° 1013.3 hPa 1.7 m/s 15.8 mm
14:00 19.6° 1013.3 hPa 1.5 m/s 16.4 mm 19.6° 1013.3 hPa 1.5 m/s 16.4 mm
17:00 18.7° 1013.3 hPa 3.5 m/s 16.6 mm 18.7° 1013.3 hPa 3.5 m/s 16.6 mm
20:00 17.2° 1013.7 hPa 2.9 m/s 16.7 mm 17.2° 1013.7 hPa 2.9 m/s 16.7 mm
23:00 13.4° 1014.8 hPa 2.0 m/s 16.7 mm 13.4° 1014.8 hPa 2.0 m/s 16.7 mm
 06:06     21:26    Daglengte: 15:20 Dinsdag 03 Aug
02:00 12.7° 1015.2 hPa 1.6 m/s 16.7 mm 12.7° 1015.2 hPa 1.6 m/s 16.7 mm
05:00 11.8° 1015.3 hPa 1.4 m/s 16.7 mm 11.8° 1015.3 hPa 1.5 m/s 16.7 mm
08:00 14.1° 1016.0 hPa 0.7 m/s 16.7 mm 14.1° 1016.0 hPa 0.7 m/s 16.7 mm
11:00 19.1° 1016.1 hPa 1.2 m/s 16.7 mm 19.1° 1016.1 hPa 1.2 m/s 16.7 mm
14:00 20.0° 1015.6 hPa 2.3 m/s 17.3 mm 20.0° 1015.6 hPa 2.3 m/s 17.3 mm
17:00 18.8° 1015.3 hPa 2.4 m/s 17.8 mm 18.8° 1015.3 hPa 2.4 m/s 17.8 mm
20:00 16.9° 1015.8 hPa 2.5 m/s 18.2 mm 16.9° 1015.8 hPa 2.5 m/s 18.2 mm
23:00 13.0° 1016.8 hPa 2.2 m/s 18.2 mm 13.0° 1016.8 hPa 2.2 m/s 18.2 mm
 06:08     21:24    Daglengte: 15:16 Woensdag 04 Aug
02:00 11.4° 1017.2 hPa 1.3 m/s 18.2 mm 11.4° 1017.2 hPa 1.3 m/s 18.2 mm
05:00 10.5° 1016.8 hPa 0.8 m/s 18.2 mm 10.5° 1016.8 hPa 0.8 m/s 18.2 mm
08:00 13.2° 1017.9 hPa 0.9 m/s 18.2 mm 13.2° 1017.9 hPa 0.9 m/s 18.2 mm
11:00 18.6° 1018.1 hPa 1.0 m/s 18.2 mm 18.6° 1018.1 hPa 1.0 m/s 18.2 mm
14:00 21.8° 1017.4 hPa 0.8 m/s 18.2 mm 21.8° 1017.4 hPa 0.8 m/s 18.2 mm
17:00 19.5° 1016.9 hPa 1.7 m/s 18.2 mm 19.5° 1016.9 hPa 1.7 m/s 18.2 mm
20:00 17.8° 1017.3 hPa 2.6 m/s 18.2 mm 17.8° 1017.3 hPa 2.6 m/s 18.2 mm
23:00 14.9° 1017.6 hPa 2.1 m/s 18.2 mm 14.9° 1017.6 hPa 2.1 m/s 18.2 mm
 06:09     21:22    Daglengte: 15:13 Donderdag 05 Aug
02:00 12.4° 1017.7 hPa 1.6 m/s 18.2 mm 12.4° 1017.7 hPa 1.6 m/s 18.2 mm
05:00 11.5° 1017.0 hPa 0.6 m/s 18.2 mm 11.5° 1017.0 hPa 0.6 m/s 18.2 mm
08:00 14.4° 1017.1 hPa 0.4 m/s 18.2 mm 14.4° 1017.1 hPa 0.4 m/s 18.2 mm
11:00 20.7° 1016.9 hPa 0.7 m/s 18.2 mm 20.7° 1016.9 hPa 0.7 m/s 18.2 mm
14:00 23.3° 1015.9 hPa 1.7 m/s 18.2 mm 23.3° 1015.9 hPa 1.7 m/s 18.2 mm
20:00 18.9° 1014.8 hPa 2.0 m/s 18.2 mm 18.9° 1014.8 hPa 2.0 m/s 18.2 mm
 06:11     21:20    Daglengte: 15:09 Vrijdag 06 Aug
02:00 13.6° 1014.2 hPa 0.6 m/s 18.2 mm 13.6° 1014.2 hPa 0.6 m/s 18.2 mm
08:00 15.1° 1013.4 hPa 1.3 m/s 18.2 mm 15.1° 1013.4 hPa 1.3 m/s 18.2 mm
14:00 22.8° 1012.3 hPa 1.4 m/s 19.1 mm 22.8° 1012.3 hPa 1.4 m/s 19.1 mm
20:00 19.9° 1011.5 hPa 1.4 m/s 19.9 mm 19.9° 1011.5 hPa 1.4 m/s 19.9 mm
 06:12     21:19    Daglengte: 15:07 Zaterdag 07 Aug
02:00 14.9° 1011.4 hPa 2.5 m/s 19.9 mm 14.9° 1011.4 hPa 2.5 m/s 19.9 mm
08:00 15.8° 1009.5 hPa 3.6 m/s 19.9 mm 15.8° 1009.5 hPa 3.6 m/s 19.9 mm
14:00 22.0° 1007.4 hPa 5.1 m/s 20.2 mm 22.0° 1007.4 hPa 5.1 m/s 20.2 mm
20:00 18.1° 1005.5 hPa 3.7 m/s 24.2 mm 18.1° 1005.5 hPa 3.7 m/s 24.2 mm
 06:14     21:17    Daglengte: 15:03 Zondag 08 Aug
02:00 12.9° 1007.3 hPa 4.1 m/s 25.9 mm 12.9° 1007.3 hPa 4.1 m/s 25.9 mm
08:00 15.2° 1011.2 hPa 3.9 m/s 0.7 mm
14:00 21.1° 1012.0 hPa 4.5 m/s 0.9 mm
20:00 19.2° 1012.3 hPa 2.9 m/s 0.3 mm
 06:16     21:15    Daglengte: 14:59 Maandag 09 Aug
02:00 15.5° 1013.4 hPa 2.7 m/s 0.4 mm
08:00 15.8° 1013.9 hPa 3.3 m/s 0.4 mm
14:00 21.4° 1015.6 hPa 4.3 m/s 0.0 mm
20:00 19.3° 1016.1 hPa 2.6 m/s 0.9 mm
 06:17     21:13    Daglengte: 14:56 Dinsdag 10 Aug
02:00 15.2° 1017.3 hPa 2.6 m/s 0.4 mm
08:00 15.8° 1017.4 hPa 3.1 m/s 0.2 mm
14:00 21.6° 1018.1 hPa 4.2 m/s 0.5 mm
20:00 19.5° 1017.7 hPa 2.9 m/s 0.4 mm
 06:19     21:11    Daglengte: 14:52 Woensdag 11 Aug
02:00 15.4° 1018.2 hPa 2.2 m/s 0.3 mm
08:00 16.1° 1017.4 hPa 2.9 m/s 0.0 mm
14:00 22.2° 1017.8 hPa 3.5 m/s 0.8 mm
20:00 20.2° 1017.1 hPa 2.4 m/s 0.6 mm
 06:20     21:09    Daglengte: 14:49 Donderdag 12 Aug
02:00 16.2° 1017.3 hPa 1.1 m/s 0.3 mm
08:00 16.4° 1016.9 hPa 1.6 m/s 0.5 mm
14:00 22.2° 1016.7 hPa 2.3 m/s 1.2 mm
20:00 19.5° 1016.5 hPa 1.5 m/s 1.3 mm
 06:22     21:07    Daglengte: 14:45 Vrijdag 13 Aug
02:00 15.9° 1016.7 hPa 1.7 m/s 0.9 mm
08:00 16.0° 1016.7 hPa 1.8 m/s 0.3 mm
FMI Hirlam - 7.5 km EWN WRFDA - 12 km DWD ICON - 7 km GFS - 25 km Basiskaart






























































Updatetijd (Europe/Amsterdam) Resolutie Lengte Stap
FMI Hirlam 07:00, 13:00, 19:00, 01:00 7.5 km 49h 1h
EWN WRFDA 10:15, 16:15, 22:15, 04:15 12 km 73h 1h
DWD ICON 06:15, 12:15, 18:15, 00:15 7 km 75h 1h
GFS 08:15, 14:15, 20:15, 02:15 25 km 237h 3h
30+ mm
25-30 mm
20-25 mm
15-20 mm
10-15 mm
6-10 mm
4-6 mm
2-4 mm
1-2 mm
0.5-1 mm
0.2-0.5 mm
0.1-0.2 mm
30+ mm
25-30 mm
20-25 mm
15-20 mm
10-15 mm
6-10 mm
4-6 mm
2-4 mm
1-2 mm
0.5-1 mm
0.2-0.5 mm
0.1-0.2 mm
Sneeuwval
Natte sneeuw
Hagel
Vorst
30+ mm
25-30 mm
20-25 mm
15-20 mm
10-15 mm
6-10 mm
4-6 mm
2-4 mm
1-2 mm
0.5-1 mm
0.2-0.5 mm
0.1-0.2 mm
Sneeuwval
Natte sneeuw
Hagel
Vorst
Onweer
50 mm
40 mm
30 mm
26 mm
22 mm
18 mm
14 mm
10 mm
9 mm
8 mm
7 mm
6 mm
5 mm
4.5 mm
4 mm
3.5 mm
3 mm
2.5 mm
2 mm
1.5 mm
1 mm
0.8 mm
0.6 mm
0.4 mm
0.2 mm
0.05 mm
35°
30°
25°
20°
15°
10°
-5°
-10°
-15°
-20°
-25°
-30°
-35°
33> m/s
29 m/s
25 m/s
21 m/s
17 m/s
14 m/s
11 m/s
8 m/s
5 m/s
3 m/s
0 m/s
2600 J/kg
2400 J/kg
2200 J/kg
2000 J/kg
1800 J/kg
1600 J/kg
1400 J/kg
1200 J/kg
1000 J/kg
800 J/kg
600 J/kg
400 J/kg
200 J/kg
70 dBZ
65 dBZ
60 dBZ
55 dBZ
50 dBZ
45 dBZ
40 dBZ
35 dBZ
30 dBZ
25 dBZ
20 dBZ
15 dBZ
10 dBZ
5 dBZ
-1 K
-2 K
-3 K
-4 K
-5 K
-6 K
-7 K
-8 K
-9 K
950 m²/s²
900 m²/s²
850 m²/s²
800 m²/s²
750 m²/s²
700 m²/s²
650 m²/s²
600 m²/s²
550 m²/s²
500 m²/s²
450 m²/s²
400 m²/s²
350 m²/s²
300 m²/s²
250 m²/s²
200 m²/s²
150 m²/s²
100 m²/s²
46 m/s
44 m/s
42 m/s
40 m/s
38 m/s
36 m/s
34 m/s
32 m/s
30 m/s
28 m/s
26 m/s
24 m/s
22 m/s
20 m/s
16 m/s
12 m/s
8 m/s
4 m/s
30 m/s
28 m/s
26 m/s
24 m/s
22 m/s
20 m/s
18 m/s
16 m/s
14 m/s
12 m/s
10 m/s
8 m/s
6 m/s
4 m/s
2 m/s
3.0
2.8
2.6
2.4
2.2
2.0
1.8
1.6
1.4
1.2
1.0
0.8
0.6
0.4
0.2
15
14
13